Temp
21 21 21 21 21 21 21 21 21 20 20 21 21 21 21 21 21 21 21 20 20 20 20 20 20 19 19 19 19 19 19 19 19 20 20 19 19 19 19 19 19 19
21 21 21 21 21 21 21 21 21 21 21 21 21 21 21 21 21 21 21 20 20 20 20 20 20 19 19 19 19 19 19 19 19 19 20 20 20 20 20 20 19 19
21 21 21 21 21 21 21 21 21 21 21 21 21 21 21 20 20 20 21 21 21 21 20 20 20 20 19 19 19 19 19 19 19 19 20 20 20 20 20 20 20 20
22 22 22 22 22 22 21 21 21 21 21 21 21 21 21 20 20 20 20 21 21 21 21 20 20 20 20 19 19 19 19 19 19 19 19 20 20 20 21 21 20 20
22 22 22 22 22 22 22 22 22 21 21 22 22 21 21 21 21 20 20 21 21 21 21 21 21 20 20 20 20 19 19 19 19 19 20 20 20 20 21 21 21 20
22 22 22 22 22 22 22 22 22 22 22 22 22 22 22 21 21 21 21 21 21 21 21 21 21 21 20 20 20 20 20 20 20 20 20 20 20 20 21 21 21 21
22 22 22 22 22 22 22 22 22 22 22 22 22 22 22 22 22 21 21 21 21 21 21 21 21 21 21 21 21 20 20 20 20 20 20 20 20 20 21 21 21 21
23 22 22 22 22 22 22 22 22 22 22 22 22 22 22 22 22 22 22 22 21 21 21 21 21 21 21 21 21 21 21 21 21 21 21 21 20 20 21 21 21 21
23 23 22 22 22 22 22 23 23 23 22 22 22 22 22 23 23 22 22 22 22 22 22 22 22 22 21 21 21 21 21 21 21 21 21 21 21 21 21 21 21 21
23 23 23 22 22 22 22 23 23 23 23 23 22 22 22 22 23 23 23 22 22 22 22 22 22 22 22 22 22 22 22 21 21 21 21 21 21 21 21 21 21 21
23 23 23 23 22 22 22 22 22 23 23 23 23 22 22 22 23 23 23 23 23 23 23 23 23 22 22 22 22 22 22 22 22 22 21 21 21 21 21 21 21 21
23 23 23 23 23 22 22 22 22 22 22 23 23 23 23 23 23 23 23 23 23 23 23 23 23 23 23 23 23 22 22 22 22 22 22 22 22 22 22 22 22 21
23 23 23 23 23 23 23 22 22 22 22 22 22 23 23 23 23 23 23 23 23 23 23 23 23 23 23 23 23 23 23 22 22 22 22 22 22 22 22 22 22 22
23 23 23 23 23 23 23 23 22 22 22 22 22 22 23 23 23 23 23 23 23 23 23 23 23 23 23 23 23 23 23 23 23 22 22 22 22 22 22 22 22 22
23 23 23 23 23 23 23 23 22 22 22 22 22 22 22 23 23 23 23 23 23 23 23 23 23 23 23 23 23 23 23 23 23 23 22 22 22 22 22 22 22 22
23 23 23 23 23 23 23 23 23 22 22 22 22 22 22 22 22 22 23 23 23 23 23 23 23 24 24 24 24 24 23 23 23 23 23 23 22 22 23 22 22 22
23 23 23 23 23 23 23 23 23 23 22 22 22 22 22 21 22 22 22 23 23 23 23 23 23 24 24 24 24 24 24 24 23 23 23 23 23 23 23 23 23 22
23 23 23 23 23 23 23 23 23 23 22 22 22 22 22 21 21 21 22 22 22 23 23 23 24 24 24 24 24 24 24 24 24 24 23 23 23 23 23 23 23 23
23 23 23 23 23 23 23 23 23 23 22 22 22 22 22 21 21 21 21 21 22 22 23 23 24 24 24 24 24 24 24 24 24 24 23 23 23 23 23 23 23 23
23 23 23 23 23 23 23 23 23 23 22 22 22 22 22 21 21 21 21 21 21 22 22 23 24 24 24 24 24 24 24 24 24 24 23 23 23 23 23 23 23 23
22 23 23 23 23 23 23 23 22 22 22 22 22 22 22 22 21 21 21 21 21 21 21 22 23 24 24 24 24 24 24 24 23 23 23 23 23 23 23 23 23 23
22 22 22 23 23 22 22 22 22 22 22 22 22 22 22 22 21 21 21 21 21 21 21 22 23 24 24 24 24 24 24 23 23 23 23 23 23 23 23 23 23 23
21 22 22 22 22 22 22 22 22 22 22 22 22 22 22 22 22 21 21 21 21 21 21 22 23 24 24 25 25 24 24 23 23 23 23 23 23 23 23 23 23 23
20 20 21 21 21 21 22 22 22 22 22 22 22 22 22 22 22 22 21 21 21 21 21 21 23 24 24 24 25 24 24 23 23 23 23 23 23 23 23 23 23 23
19 19 20 20 21 21 21 21 21 21 22 22 22 22 22 22 22 22 21 21 21 21 21 21 22 23 24 24 25 24 24 23 23 23 23 23 23 23 23 23 23 23
19 19 19 20 20 20 21 21 21 22 21 21 21 21 21 22 21 21 21 22 22 21 21 21 22 22 24 24 24 24 24 23 23 23 23 23 23 23 23 23 23 23
Height
1566 1568 1570 1572 1573 1575 1577 1579 1581 1582 1583 1585 1586 1587 1589 1590 1592 1593 1594 1595 1596 1597 1598 1599 1600 1601 1602 1603 1603 1604 1604 1605 1606 1607 1608 1609 1610 1611 1611 1612 1613 1614
1564 1566 1568 1570 1572 1574 1576 1577 1579 1581 1582 1584 1585 1587 1588 1590 1591 1592 1594 1595 1596 1597 1598 1598 1599 1600 1601 1602 1603 1604 1604 1605 1605 1606 1607 1608 1609 1610 1610 1611 1612 1613
1562 1564 1566 1568 1570 1572 1574 1576 1578 1579 1581 1583 1584 1586 1588 1589 1590 1592 1593 1594 1595 1596 1597 1598 1599 1599 1600 1601 1602 1603 1604 1604 1605 1605 1606 1607 1608 1608 1609 1610 1611 1612
1559 1562 1564 1566 1568 1570 1573 1574 1576 1578 1579 1581 1583 1585 1586 1588 1589 1590 1592 1593 1594 1595 1596 1597 1598 1599 1599 1600 1601 1602 1603 1604 1604 1605 1605 1606 1607 1607 1608 1609 1610 1611
1557 1560 1562 1564 1567 1569 1571 1572 1574 1576 1578 1579 1581 1583 1585 1586 1588 1589 1590 1592 1593 1594 1595 1596 1597 1598 1599 1599 1600 1601 1602 1603 1604 1604 1605 1605 1606 1606 1607 1608 1609 1610
1555 1557 1560 1562 1564 1566 1568 1570 1572 1574 1576 1578 1580 1581 1583 1584 1586 1587 1589 1590 1592 1593 1594 1595 1596 1597 1597 1598 1599 1600 1601 1602 1603 1603 1604 1604 1605 1606 1606 1607 1608 1609
1552 1555 1557 1560 1562 1564 1566 1568 1570 1572 1574 1576 1578 1580 1581 1583 1584 1585 1587 1589 1590 1591 1592 1594 1595 1596 1596 1597 1598 1599 1600 1601 1601 1602 1602 1603 1604 1604 1605 1606 1607 1608
1550 1552 1554 1557 1559 1561 1563 1565 1567 1569 1572 1574 1575 1577 1579 1581 1582 1584 1585 1587 1588 1589 1591 1592 1593 1594 1595 1596 1596 1598 1598 1599 1600 1601 1601 1602 1603 1603 1604 1605 1606 1607
1547 1549 1551 1554 1556 1558 1560 1562 1565 1567 1569 1571 1573 1575 1577 1578 1580 1582 1583 1585 1586 1587 1589 1590 1591 1592 1593 1594 1595 1596 1597 1598 1599 1599 1600 1601 1601 1602 1603 1604 1605 1605
1544 1546 1548 1550 1552 1555 1557 1559 1562 1564 1566 1568 1570 1572 1574 1576 1578 1579 1581 1582 1583 1585 1586 1587 1589 1590 1591 1592 1593 1594 1595 1596 1597 1598 1599 1599 1600 1601 1602 1603 1603 1604
1541 1543 1545 1547 1549 1552 1554 1557 1559 1561 1563 1565 1567 1569 1571 1573 1575 1576 1578 1579 1580 1582 1583 1585 1586 1588 1589 1590 1591 1592 1593 1594 1595 1596 1597 1598 1599 1599 1600 1601 1602 1602
1538 1540 1542 1544 1546 1549 1551 1554 1556 1558 1560 1561 1564 1566 1568 1570 1572 1573 1575 1576 1578 1579 1581 1582 1584 1585 1586 1587 1589 1590 1591 1592 1593 1594 1595 1596 1597 1598 1598 1599 1600 1600
1534 1536 1539 1541 1543 1546 1548 1550 1552 1554 1556 1558 1560 1562 1564 1566 1568 1570 1571 1573 1575 1576 1578 1579 1581 1582 1583 1585 1586 1587 1588 1589 1590 1591 1592 1593 1594 1596 1596 1597 1598 1599
1531 1534 1536 1538 1541 1543 1545 1547 1549 1551 1552 1554 1556 1558 1560 1562 1564 1566 1568 1570 1571 1573 1575 1576 1577 1579 1580 1582 1583 1584 1585 1586 1588 1589 1590 1591 1592 1593 1594 1595 1596 1596
1528 1531 1533 1535 1537 1539 1541 1543 1545 1547 1549 1551 1553 1554 1556 1558 1560 1563 1564 1566 1568 1569 1571 1573 1574 1575 1577 1578 1580 1581 1583 1584 1585 1586 1587 1588 1589 1590 1591 1592 1593 1594
1525 1527 1530 1532 1534 1536 1538 1540 1542 1544 1545 1547 1548 1550 1552 1554 1556 1558 1560 1562 1564 1565 1567 1568 1570 1571 1573 1575 1577 1578 1580 1581 1582 1583 1584 1585 1586 1587 1588 1589 1590 1591
1521 1524 1526 1528 1530 1532 1534 1536 1538 1540 1542 1543 1545 1546 1548 1550 1552 1554 1555 1557 1559 1561 1563 1564 1565 1567 1569 1572 1573 1575 1576 1577 1578 1580 1581 1581 1582 1583 1584 1585 1586 1588
1518 1520 1522 1525 1527 1529 1531 1533 1535 1537 1538 1540 1541 1543 1545 1546 1548 1549 1551 1553 1555 1557 1558 1559 1561 1563 1565 1568 1569 1571 1573 1574 1575 1576 1577 1578 1579 1580 1581 1582 1583 1584
1515 1517 1519 1521 1523 1525 1528 1530 1531 1533 1534 1536 1538 1540 1541 1542 1544 1545 1547 1549 1550 1552 1553 1555 1556 1558 1561 1563 1565 1567 1569 1570 1571 1572 1573 1574 1575 1576 1578 1579 1580 1581
1512 1514 1516 1518 1520 1522 1524 1526 1527 1529 1530 1532 1534 1536 1537 1538 1540 1541 1543 1544 1546 1547 1548 1550 1552 1554 1556 1558 1560 1563 1565 1566 1567 1568 1569 1570 1571 1572 1574 1575 1576 1577
1508 1510 1512 1514 1516 1519 1520 1522 1524 1525 1527 1529 1530 1531 1533 1534 1536 1537 1538 1540 1541 1543 1544 1545 1547 1549 1551 1553 1555 1558 1560 1561 1563 1564 1564 1565 1566 1568 1569 1571 1572 1574
1506 1507 1509 1511 1513 1515 1516 1518 1520 1521 1523 1525 1526 1528 1529 1530 1531 1533 1534 1535 1537 1538 1539 1540 1542 1544 1547 1548 1550 1553 1555 1557 1558 1559 1560 1561 1562 1563 1565 1566 1568 1570
1504 1505 1507 1509 1510 1512 1513 1514 1516 1518 1520 1522 1523 1524 1525 1526 1527 1529 1530 1531 1532 1534 1534 1535 1537 1539 1542 1543 1546 1548 1550 1552 1553 1554 1555 1556 1558 1559 1561 1562 1564 1566
1502 1503 1505 1506 1508 1509 1510 1512 1513 1515 1516 1518 1519 1520 1521 1522 1523 1525 1526 1527 1528 1529 1530 1530 1532 1534 1537 1539 1541 1543 1545 1547 1548 1550 1551 1552 1554 1555 1557 1558 1560 1561
1499 1500 1502 1504 1505 1506 1508 1509 1511 1512 1513 1514 1515 1516 1517 1519 1520 1521 1521 1522 1523 1524 1526 1526 1527 1529 1532 1534 1536 1538 1540 1542 1544 1546 1547 1548 1549 1551 1553 1554 1555 1557
1495 1497 1499 1501 1502 1504 1505 1506 1507 1509 1509 1510 1511 1512 1514 1515 1516 1516 1517 1518 1519 1520 1521 1522 1523 1524 1526 1529 1531 1534 1536 1538 1540 1541 1542 1544 1545 1547 1548 1549 1551 1552
Wind_Speed
28 29 29 29 27 26 25 25 23 22 23 22 20 18 17 15 14 15 15 13 13 13 12 12 11 10 11 11 10 9 9 9 10 11 13 14 13 10 9 8 7 7
27 27 29 29 28 27 26 26 25 24 23 23 22 19 17 15 15 15 15 15 14 13 12 12 11 11 11 12 11 10 10 10 9 10 11 13 13 12 10 9 9 9
28 27 27 28 28 28 27 26 26 25 24 23 22 21 19 16 14 15 15 15 15 14 13 12 12 12 12 12 13 12 11 10 10 10 10 11 11 11 11 11 11 10
29 28 27 27 27 27 27 27 27 27 25 24 22 21 20 17 16 15 14 14 14 14 14 13 12 12 12 13 14 14 13 11 10 9 9 10 10 10 10 10 11 10
30 29 28 27 27 27 28 28 27 27 26 25 22 22 21 19 18 17 16 15 14 14 14 14 13 13 13 13 14 14 14 13 11 10 10 10 9 9 8 10 11 11
31 30 29 28 27 28 29 29 29 28 27 25 23 22 22 21 20 20 18 17 16 14 13 13 13 13 13 13 14 14 14 14 13 12 11 10 9 9 9 9 11 12
33 32 30 29 28 28 29 30 30 30 29 27 25 24 22 21 21 21 20 18 18 16 15 14 13 13 13 13 14 14 14 14 13 13 12 11 10 10 10 9 10 12
33 32 31 30 29 29 30 30 31 31 30 29 28 26 24 23 22 21 20 19 18 18 16 15 14 14 14 15 15 15 14 14 13 13 13 12 12 12 11 10 10 10
35 34 33 32 31 30 30 30 31 32 32 31 30 28 26 25 23 22 21 21 19 18 17 16 16 15 15 16 16 16 15 15 14 13 13 13 14 13 12 12 12 12
38 36 35 34 33 32 31 30 30 31 33 33 32 30 28 27 25 24 23 22 21 20 19 18 17 17 17 17 17 17 17 16 15 15 14 14 15 14 14 14 14 14
40 38 37 36 35 33 32 30 30 31 32 34 34 33 31 29 28 27 26 25 24 22 21 20 19 19 18 18 18 18 18 18 17 17 16 16 16 15 16 16 16 15
42 40 39 37 36 34 33 31 31 31 32 33 35 35 34 32 31 30 29 28 26 25 24 23 22 21 20 19 19 19 19 20 19 19 18 17 17 17 17 16 17 17
43 42 40 38 36 34 33 32 31 31 31 33 34 35 36 35 34 33 32 30 29 28 27 25 25 24 23 22 21 21 20 21 21 21 20 20 19 18 18 18 17 17
43 42 40 38 36 35 33 32 32 31 31 31 33 35 36 37 36 35 34 33 32 31 30 29 28 27 26 25 24 23 22 22 22 22 22 22 21 20 20 19 19 19
43 42 41 40 38 37 35 34 32 31 31 30 31 33 35 37 37 37 36 35 34 33 32 31 31 30 28 27 26 25 24 24 23 23 23 23 23 22 22 21 21 20
43 43 42 41 40 38 37 35 34 32 31 31 31 32 33 35 36 38 38 38 37 36 35 35 34 33 31 29 28 27 26 26 25 24 23 24 24 25 24 23 22 22
43 42 42 41 40 39 38 36 35 34 33 32 32 32 32 32 34 36 38 38 38 37 37 37 36 35 33 31 30 28 28 27 27 26 25 25 25 26 26 25 24 24
42 42 42 41 40 39 38 36 35 35 35 34 34 33 32 32 32 34 35 37 37 38 38 37 37 35 34 32 31 30 29 28 28 27 27 26 26 26 27 27 26 26
41 41 41 41 40 39 37 37 36 36 36 35 35 34 33 33 33 32 33 34 36 37 38 38 37 36 34 33 32 31 30 30 29 29 28 28 27 27 27 28 28 27
39 40 39 38 38 37 37 37 37 37 36 35 34 34 35 35 34 34 33 33 34 35 37 38 38 37 36 35 34 32 31 31 30 30 29 29 28 28 28 28 29 29
38 38 37 36 35 35 36 36 36 36 35 34 34 34 34 34 34 34 34 33 33 33 35 37 38 38 37 36 35 33 32 31 30 30 30 29 29 29 29 29 29 29
37 36 36 35 35 35 36 35 35 34 32 32 32 33 33 33 33 33 33 33 33 33 34 36 38 38 38 37 36 34 32 31 31 30 30 30 30 30 30 29 29 29
38 38 37 35 35 37 37 35 34 33 31 31 32 32 32 32 32 31 31 32 32 33 34 35 37 38 37 36 35 34 32 32 31 31 31 31 31 30 30 30 29 29
37 38 38 37 37 37 37 36 35 34 33 32 32 32 32 31 31 31 31 31 32 32 33 33 34 35 36 36 35 33 33 32 32 32 32 31 31 31 31 31 31 30
33 33 34 36 37 37 36 36 35 34 33 33 34 34 33 32 32 33 33 32 31 31 31 31 31 32 34 35 35 34 33 33 32 32 32 32 32 31 31 31 31 31
30 30 30 31 33 34 33 32 31 32 32 34 35 35 34 34 34 35 34 33 32 32 31 30 30 30 31 33 34 34 34 34 33 34 33 33 32 32 32 32 32 32
Wind_Direction
227 228 228 228 229 230 229 227 222 219 218 219 220 221 220 220 224 228 229 227 225 223 221 222 222 222 220 215 214 214 216 222 225 226 230 236 241 241 240 244 244 245
227 228 229 230 230 230 231 229 227 224 221 222 224 223 220 219 222 226 229 229 228 226 224 223 223 224 225 223 222 223 224 226 227 228 231 236 243 245 243 241 240 246
226 228 229 230 230 230 231 231 231 229 226 225 225 225 222 220 221 224 228 231 232 231 229 227 227 227 227 226 226 229 231 231 230 232 236 240 246 249 245 241 239 245
226 228 229 231 231 231 232 233 233 232 231 228 226 225 225 223 223 223 226 231 233 234 235 234 233 232 232 230 230 234 237 236 233 236 243 246 248 250 245 238 236 237
228 229 230 231 232 233 233 233 233 233 233 232 229 227 226 225 224 224 226 230 231 233 235 238 238 237 237 236 235 236 239 238 237 241 250 253 252 251 246 239 235 233
231 230 230 232 233 234 234 233 233 233 234 235 233 230 228 227 225 224 226 228 230 232 234 237 241 242 243 244 242 240 240 240 241 245 253 257 257 256 253 244 238 234
233 233 232 232 233 234 235 235 235 234 234 236 236 234 230 228 226 225 226 229 232 235 236 238 242 245 248 251 251 248 245 242 242 245 251 256 256 256 257 253 247 242
235 235 234 233 233 234 236 236 236 236 236 236 236 235 232 229 228 228 230 233 236 238 241 243 246 248 251 254 256 256 252 247 244 244 248 252 254 255 257 258 258 255
237 236 235 235 234 235 236 237 238 237 236 236 236 235 234 231 230 232 235 237 240 244 248 250 252 253 253 254 255 256 255 253 248 246 246 249 252 254 256 259 262 264
238 238 237 236 236 235 236 238 239 240 239 238 237 236 235 234 233 234 236 239 242 246 250 254 256 256 256 256 256 255 255 255 254 252 249 248 251 252 253 256 260 264
239 239 239 239 238 238 237 237 239 241 241 240 239 238 236 235 235 236 237 239 241 244 249 253 256 259 260 261 262 260 258 255 255 255 254 252 251 252 252 253 256 259
240 240 241 241 242 241 240 239 239 240 242 241 241 240 239 237 236 237 239 240 242 244 248 251 255 258 261 264 267 268 266 262 258 256 256 256 254 252 252 252 254 255
241 242 242 243 244 244 243 243 242 242 242 242 242 242 242 241 238 238 239 242 244 246 247 250 253 256 258 261 265 267 269 268 265 260 257 257 257 255 253 252 252 253
242 243 244 244 245 246 246 245 244 244 244 244 244 243 243 243 242 241 241 243 245 247 249 250 252 254 255 257 260 263 266 268 268 265 260 257 256 256 255 253 252 252
243 244 244 245 245 246 246 246 246 246 246 246 245 244 244 244 244 244 244 244 246 247 249 250 251 252 252 253 256 260 263 265 266 267 264 260 257 254 254 254 252 252
244 244 244 245 245 246 247 248 248 249 249 248 247 246 246 245 245 245 246 246 247 247 249 250 251 251 251 252 255 257 260 262 263 264 264 263 259 255 254 253 253 252
243 244 244 245 246 247 248 249 250 251 251 252 251 250 249 247 246 246 246 246 247 247 248 249 250 250 250 251 253 255 257 259 261 262 262 262 260 257 255 253 253 254
242 243 244 246 247 247 248 250 251 252 252 253 253 253 252 251 249 248 247 247 247 247 248 248 249 250 250 251 251 253 255 257 259 260 261 261 259 257 255 254 254 254
242 243 244 246 247 248 249 250 250 251 252 253 254 254 254 254 253 252 251 249 248 248 247 247 248 249 249 250 251 251 253 255 257 258 259 259 258 256 255 255 254 254
242 243 245 246 248 249 249 250 251 251 252 253 254 255 255 255 254 254 253 252 251 251 249 248 247 248 249 250 251 251 253 255 257 257 258 257 256 254 254 253 254 254
241 242 244 246 247 248 248 250 251 252 252 253 254 254 254 255 255 255 255 254 254 253 253 250 247 246 247 249 250 251 252 253 255 255 255 255 254 253 252 252 253 254
241 241 243 245 245 246 247 248 249 250 251 252 253 254 254 255 255 255 255 254 254 254 253 251 248 245 246 247 248 249 250 252 253 253 253 253 252 252 252 252 252 253
239 240 241 243 244 245 246 247 248 249 250 251 251 252 253 254 254 255 255 254 253 253 252 251 248 245 244 244 245 246 248 249 250 250 251 252 251 251 252 252 252 253
236 238 240 242 244 245 247 248 249 251 251 252 252 253 253 254 255 255 256 255 255 254 253 253 251 247 244 243 242 243 245 247 248 250 251 252 251 251 252 252 252 252
230 235 239 242 244 246 248 250 252 254 255 255 255 255 255 256 256 256 257 257 257 257 256 256 254 249 245 243 241 241 243 244 247 250 251 252 252 252 252 252 252 252
228 230 234 238 243 245 248 250 252 253 253 254 255 256 257 257 257 256 257 258 258 258 257 257 257 253 248 244 243 243 244 244 246 248 249 250 252 253 254 253 252 251